Overview Statistics Trail Chart Weather Telemetry Raw packets
 

This is the latest recevied weather packets stored in our database for station/object EA3IK-1. If no packets are shown the sender has not sent any weather packets the latest 10 day(s).

<< 1 2 3 4 5 6 7 >>
Time Temp. Humidity Pressure Rain* Wind** Luminosity Snow
1788526932 36.67° C 54% 1017 hPa 0 mm - - -
1788526031 36.67° C 51% 1017.1 hPa 0 mm - - -
1788525130 36.67° C 55% 1017.1 hPa 0 mm - - -
1788524229 36.11° C 56% 1017.3 hPa 0 mm - - -
1788523328 36.11° C 54% 1017.6 hPa 0 mm - - -
1788522469 36.11° C 50% 1017.7 hPa 0 mm - - -
1788522427 36.11° C 50% 1017.7 hPa 0 mm - - -
1788521526 35.56° C 49% 1017.9 hPa 0 mm - - -
1788520625 35.56° C 51% 1018.1 hPa 0 mm - - -
1788519725 34.44° C 54% 1018.3 hPa 0 mm - - -
1788518824 33.33° C 60% 1018.5 hPa 0 mm - - -
1788517923 33.33° C 61% 1018.7 hPa 0 mm - - -
1788517022 32.78° C 62% 1018.8 hPa 0 mm - - -
1788516121 32.22° C 63% 1019 hPa 0 mm - - -
1788515220 31.11° C 64% 1019 hPa 0 mm - - -
1788514319 30.56° C 64% 1019.1 hPa 0 mm - - -
1788513419 30° C 64% 1019.1 hPa 0 mm - - -
1788512518 29.44° C 64% 1019.1 hPa 0 mm - - -
1788511617 28.33° C 63% 1019.2 hPa 0 mm - - -
1788510716 27.78° C 60% 1019.2 hPa 0 mm - - -
1788509815 26.67° C 58% 1019.1 hPa 0 mm - - -
1788508914 26.11° C 55% 1019.2 hPa 0 mm - - -
1788508013 25.56° C 55% 1019.1 hPa 0 mm - - -
1788507113 25.56° C 52% 1019.2 hPa 0 mm - - -
1788506212 24.44° C 49% 1019.4 hPa 0 mm - - -

* Rain latest hour (hover to see other rain measurements)
** Current wind speed in m/s (hover to see current wind gust speed)